When you browse on this site, cookies collect data to enhance your experience and personalize the content and advertising you see.
Visit our Privacy Policy to learn more. By continuing to use the site, you agree to this use of cookies and data.
  • In United Kingdom
  • List of Countries
  • For 7 days
  • Water Temperature
  • Weather Map
  • Weather Widgets
  • user-avatar
    Login

    Hourly Weather Bruges

    Today, 9 April, Thursday

    Time Temperature Precipitation Wind Pressure Humidity
    00:00 +12°C° 0 mm 2 mps 767 mmHg 75%
    01:00 +12°C° 0 mm 2 mps 767 mmHg 77%
    02:00 +12°C° 0 mm 2 mps 766 mmHg 79%
    03:00 +12°C° 0 mm 2 mps 766 mmHg 81%
    04:00 +12°C° 0 mm 2 mps 767 mmHg 84%
    05:00 +11°C° 0 mm 3 mps 767 mmHg 87%
    06:00 +11°C° 0 mm 3 mps 767 mmHg 89%
    07:00 +12°C° 0 mm 3 mps 767 mmHg 83%
    08:00 +14°C° 0 mm 3 mps 767 mmHg 77%
    09:00 +17°C° 0 mm 3 mps 768 mmHg 70%
    10:00 +18°C° 0 mm 3 mps 768 mmHg 64%
    11:00 +19°C° 0 mm 3 mps 768 mmHg 59%
    12:00 +21°C° 0 mm 3 mps 768 mmHg 53%
    13:00 +20°C° 0 mm 4 mps 768 mmHg 53%
    14:00 +20°C° 0 mm 5 mps 767 mmHg 52%
    15:00 +20°C° 0 mm 5 mps 767 mmHg 52%
    16:00 +19°C° 0 mm 5 mps 767 mmHg 57%
    17:00 +16°C° 0 mm 5 mps 767 mmHg 62%
    18:00 +15°C° 0 mm 5 mps 768 mmHg 67%
    19:00 +14°C° 0 mm 5 mps 768 mmHg 68%
    20:00 +13°C° 0 mm 5 mps 768 mmHg 69%
    21:00 +13°C° 0 mm 5 mps 768 mmHg 71%
    22:00 +12°C° 0 mm 4 mps 769 mmHg 73%
    23:00 +12°C° 0 mm 4 mps 769 mmHg 76%

    Tomorrow, 10 April, Friday

    Time Temperature Precipitation Wind Pressure Humidity
    00:00 +11°C° 0 mm 4 mps 769 mmHg 79%
    01:00 +10°C° 0 mm 4 mps 769 mmHg 80%
    02:00 +10°C° 0 mm 4 mps 768 mmHg 82%
    03:00 +10°C° 0 mm 4 mps 768 mmHg 84%
    04:00 +10°C° 0 mm 4 mps 768 mmHg 85%
    05:00 +10°C° 0 mm 4 mps 768 mmHg 85%
    06:00 +10°C° 0 mm 4 mps 769 mmHg 86%
    07:00 +11°C° 0 mm 4 mps 769 mmHg 80%
    08:00 +13°C° 0 mm 4 mps 769 mmHg 74%
    09:00 +15°C° 0 mm 4 mps 769 mmHg 68%
    10:00 +17°C° 0 mm 4 mps 769 mmHg 63%
    11:00 +19°C° 0 mm 4 mps 768 mmHg 57%
    12:00 +20°C° 0 mm 4 mps 768 mmHg 51%
    13:00 +20°C° 0 mm 4 mps 768 mmHg 51%
    14:00 +20°C° 0 mm 4 mps 767 mmHg 51%
    15:00 +20°C° 0 mm 4 mps 767 mmHg 50%
    16:00 +19°C° 0 mm 4 mps 767 mmHg 56%
    17:00 +17°C° 0 mm 4 mps 767 mmHg 61%
    18:00 +15°C° 0 mm 4 mps 767 mmHg 67%
    19:00 +14°C° 0 mm 4 mps 767 mmHg 67%
    20:00 +13°C° 0 mm 4 mps 767 mmHg 68%
    21:00 +12°C° 0 mm 4 mps 767 mmHg 69%
    22:00 +11°C° 0 mm 4 mps 767 mmHg 68%
    23:00 +11°C° 0 mm 4 mps 767 mmHg 66%

    Day after tomorrow, 11 April, Saturday

    Time Temperature Precipitation Wind Pressure Humidity
    00:00 +10°C° 0 mm 4 mps 767 mmHg 65%
    01:00 +10°C° 0 mm 3 mps 767 mmHg 63%
    02:00 +9°C° 0 mm 3 mps 767 mmHg 62%
    03:00 +9°C° 0 mm 3 mps 767 mmHg 60%
    04:00 +9°C° 0 mm 3 mps 767 mmHg 61%
    05:00 +9°C° 0 mm 3 mps 767 mmHg 63%
    06:00 +9°C° 0 mm 3 mps 766 mmHg 65%
    07:00 +11°C° 0 mm 3 mps 766 mmHg 61%
    08:00 +13°C° 0 mm 3 mps 766 mmHg 58%
    09:00 +16°C° 0 mm 2 mps 766 mmHg 55%
    10:00 +17°C° 0 mm 2 mps 766 mmHg 52%
    11:00 +18°C° 0 mm 2 mps 766 mmHg 50%
    12:00 +20°C° 0 mm 2 mps 766 mmHg 47%
    13:00 +20°C° 0 mm 2 mps 765 mmHg 45%
    14:00 +21°C° 0 mm 2 mps 764 mmHg 44%
    15:00 +21°C° 0 mm 2 mps 764 mmHg 42%
    16:00 +19°C° 0 mm 2 mps 764 mmHg 48%
    17:00 +18°C° 0 mm 2 mps 763 mmHg 53%
    18:00 +16°C° 0 mm 2 mps 763 mmHg 58%
    19:00 +15°C° 0 mm 2 mps 763 mmHg 57%
    20:00 +15°C° 0 mm 2 mps 763 mmHg 57%
    21:00 +14°C° 0 mm 2 mps 763 mmHg 56%
    22:00 +13°C° 0 mm 2 mps 763 mmHg 57%
    23:00 +13°C° 0 mm 2 mps 763 mmHg 58%

    12 April, Sunday

    Time Temperature Precipitation Wind Pressure Humidity
    00:00 +13°C° 0 mm 2 mps 762 mmHg 59%
    01:00 +13°C° 0 mm 2 mps 762 mmHg 60%
    02:00 +14°C° 0 mm 2 mps 761 mmHg 61%
    03:00 +14°C° 0 mm 2 mps 760 mmHg 62%
    04:00 +13°C° 0 mm 2 mps 760 mmHg 67%
    05:00 +13°C° 0 mm 2 mps 760 mmHg 73%
    06:00 +12°C° 0 mm 2 mps 760 mmHg 78%
    07:00 +14°C° 0.1 mm 2 mps 759 mmHg 74%
    08:00 +16°C° 0.1 mm 3 mps 759 mmHg 69%
    09:00 +18°C° 0.1 mm 3 mps 758 mmHg 65%
    10:00 +19°C° 0.4 mm 2 mps 758 mmHg 61%
    11:00 +20°C° 0.4 mm 2 mps 757 mmHg 57%
    12:00 +21°C° 0.4 mm 2 mps 757 mmHg 53%
    13:00 +20°C° 0.4 mm 2 mps 756 mmHg 54%
    14:00 +20°C° 0.4 mm 3 mps 756 mmHg 55%
    15:00 +20°C° 0.4 mm 3 mps 755 mmHg 56%
    16:00 +19°C° 1 mm 3 mps 755 mmHg 62%
    17:00 +17°C° 1 mm 3 mps 755 mmHg 69%
    18:00 +16°C° 1 mm 3 mps 755 mmHg 76%
    19:00 +14°C° 1.6 mm 3 mps 755 mmHg 80%
    20:00 +13°C° 1.6 mm 3 mps 755 mmHg 84%
    21:00 +13°C° 1.6 mm 3 mps 756 mmHg 88%
    22:00 +14°C° 0 mm 2 mps 756 mmHg 88%
    23:00 +13°C° 0 mm 2 mps 756 mmHg 87%

    13 April, Monday

    Time Temperature Precipitation Wind Pressure Humidity
    00:00 +13°C° 0 mm 2 mps 756 mmHg 87%
    01:00 +13°C° 0 mm 2 mps 756 mmHg 87%
    02:00 +13°C° 0 mm 2 mps 757 mmHg 88%
    03:00 +13°C° 0 mm 2 mps 757 mmHg 89%
    04:00 +13°C° 0 mm 2 mps 758 mmHg 90%
    05:00 +13°C° 0 mm 2 mps 758 mmHg 91%
    06:00 +13°C° 0 mm 2 mps 759 mmHg 91%
    07:00 +13°C° 0 mm 2 mps 760 mmHg 89%
    08:00 +14°C° 0 mm 1 mps 760 mmHg 87%
    09:00 +13°C° 0 mm 0 mps 761 mmHg 85%
    10:00 +15°C° 0 mm 1 mps 761 mmHg 81%
    11:00 +16°C° 0 mm 2 mps 762 mmHg 77%
    12:00 +17°C° 0 mm 3 mps 762 mmHg 72%
    13:00 +17°C° 0.1 mm 4 mps 763 mmHg 72%
    14:00 +16°C° 0.1 mm 5 mps 763 mmHg 72%
    15:00 +16°C° 0.1 mm 6 mps 763 mmHg 71%
    16:00 +15°C° 0 mm 6 mps 763 mmHg 73%
    17:00 +14°C° 0 mm 7 mps 764 mmHg 75%
    18:00 +12°C° 0 mm 7 mps 764 mmHg 77%
    19:00 +11°C° 0 mm 7 mps 765 mmHg 77%
    20:00 +11°C° 0 mm 6 mps 765 mmHg 78%
    21:00 +10°C° 0 mm 6 mps 766 mmHg 78%
    22:00 +10°C° 0 mm 6 mps 766 mmHg 79%
    23:00 +9°C° 0 mm 6 mps 766 mmHg 80%

    14 April, Tuesday

    Time Temperature Precipitation Wind Pressure Humidity
    00:00 +9°C° 0 mm 6 mps 767 mmHg 81%
    01:00 +8°C° 0 mm 6 mps 767 mmHg 81%
    02:00 +7°C° 0 mm 6 mps 767 mmHg 81%
    03:00 +7°C° 0 mm 6 mps 767 mmHg 82%
    04:00 +7°C° 0 mm 6 mps 767 mmHg 82%
    05:00 +5°C° 0 mm 6 mps 767 mmHg 82%
    06:00 +5°C° 0 mm 6 mps 767 mmHg 82%
    07:00 +7°C° 0 mm 5 mps 767 mmHg 78%
    08:00 +9°C° 0 mm 5 mps 767 mmHg 74%
    09:00 +10°C° 0 mm 5 mps 767 mmHg 70%
    10:00 +13°C° 0 mm 5 mps 767 mmHg 65%
    11:00 +14°C° 0 mm 5 mps 766 mmHg 61%
    12:00 +16°C° 0 mm 5 mps 766 mmHg 56%
    13:00 +16°C° 0 mm 5 mps 766 mmHg 54%
    14:00 +17°C° 0 mm 5 mps 765 mmHg 52%
    15:00 +17°C° 0 mm 5 mps 765 mmHg 50%
    16:00 +16°C° 0 mm 5 mps 765 mmHg 54%
    17:00 +15°C° 0 mm 5 mps 764 mmHg 58%
    18:00 +14°C° 0 mm 5 mps 764 mmHg 62%
    19:00 +13°C° 0 mm 5 mps 764 mmHg 61%
    20:00 +12°C° 0 mm 5 mps 764 mmHg 60%
    21:00 +10°C° 0 mm 5 mps 764 mmHg 60%
    22:00 +9°C° 0 mm 5 mps 764 mmHg 60%
    23:00 +10°C° 0 mm 4 mps 764 mmHg 61%
    Show more